TimeEST,TemperatureF,Dew PointF,Humidity,Sea Level PressureIn,VisibilityMPH,Wind Direction,Wind SpeedMPH,Gust SpeedMPH,PrecipitationIn,Events,Conditions,WindDirDegrees,DateUTC
12:56 AM,25.2,21.0,84,30.50,10.0,Calm,Calm,-,N/A,,Clear,0,2013-03-09 05:56:00
1:56 AM,23.0,20.1,89,30.48,10.0,Calm,Calm,-,N/A,,Clear,0,2013-03-09 06:56:00
2:56 AM,23.0,21.0,92,30.46,10.0,Calm,Calm,-,N/A,,Clear,0,2013-03-09 07:56:00
3:56 AM,22.1,21.0,96,30.45,7.0,Calm,Calm,-,N/A,,Clear,0,2013-03-09 08:56:00
4:56 AM,21.0,19.0,92,30.45,5.0,Calm,Calm,-,N/A,,Clear,0,2013-03-09 09:56:00
5:56 AM,21.0,19.0,92,30.47,6.0,Calm,Calm,-,N/A,,Clear,0,2013-03-09 10:56:00
6:56 AM,21.0,19.0,92,30.48,4.0,Calm,Calm,-,N/A,,Clear,0,2013-03-09 11:56:00
7:56 AM,24.1,22.1,92,30.49,4.0,Calm,Calm,-,N/A,,Clear,0,2013-03-09 12:56:00
8:56 AM,30.0,27.1,89,30.48,7.0,Calm,Calm,-,N/A,,Clear,0,2013-03-09 13:56:00
9:56 AM,36.0,28.0,73,30.45,10.0,East,5.8,-,N/A,,Clear,90,2013-03-09 14:56:00
10:56 AM,39.9,26.1,58,30.44,10.0,SE,4.6,-,N/A,,Partly Cloudy,130,2013-03-09 15:56:00
11:56 AM,43.9,29.1,56,30.42,10.0,Variable,3.5,-,N/A,,Clear,0,2013-03-09 16:56:00
12:56 PM,46.9,29.1,50,30.40,10.0,Variable,3.5,-,N/A,,Clear,0,2013-03-09 17:56:00
1:56 PM,50.0,29.1,45,30.36,10.0,Variable,3.5,-,N/A,,Clear,0,2013-03-09 18:56:00
2:56 PM,52.0,28.0,40,30.33,10.0,Variable,5.8,-,N/A,,Clear,0,2013-03-09 19:56:00
3:56 PM,52.9,26.1,35,30.31,10.0,Variable,4.6,-,N/A,,Clear,0,2013-03-09 20:56:00
4:56 PM,52.0,27.1,38,30.29,10.0,Calm,Calm,-,N/A,,Clear,0,2013-03-09 21:56:00
5:56 PM,50.0,26.1,39,30.30,10.0,SE,4.6,-,N/A,,Clear,130,2013-03-09 22:56:00
6:56 PM,45.9,26.1,46,30.30,10.0,ESE,5.8,-,N/A,,Clear,110,2013-03-09 23:56:00
7:56 PM,43.9,25.2,48,30.28,10.0,ESE,4.6,-,N/A,,Clear,120,2013-03-10 00:56:00
8:56 PM,41.0,24.1,51,30.27,10.0,Calm,Calm,-,N/A,,Clear,0,2013-03-10 01:56:00
9:56 PM,37.9,24.1,57,30.25,10.0,Calm,Calm,-,N/A,,Clear,0,2013-03-10 02:56:00
10:56 PM,38.8,23.0,53,30.24,10.0,Calm,Calm,-,N/A,,Clear,0,2013-03-10 03:56:00
11:56 PM,37.9,25.2,60,30.23,10.0,Calm,Calm,-,N/A,,Clear,0,2013-03-10 04:56:00